Fort Meade, MD

11:41 PM EST on February 10, 2016 (GMT -0500)
Tipton

Weather History for KFME - April, 2013

Change the Weather History Date:

Sunday, April 28, 2013

  Actual Average (KBWI) Record (KBWI)
Temperature  
Mean Temperature 52 °F 58 °F  
Max Temperature 68 °F 69 °F 90 °F (1957)
Min Temperature 35 °F 46 °F 33 °F (1998)
Degree Days  
Heating Degree Days 14 8  
Month to date heating degree days 338  
Since 1 July heating degree days 4599  
Cooling Degree Days 0 1  
Month to date cooling degree days 10  
Year to date cooling degree days 11  
Growing Degree Days 2 (Base 50)    
Moisture  
Dew Point 36 °F    
Average Humidity 57    
Maximum Humidity 100    
Minimum Humidity 28    
Precipitation  
Precipitation 0.00 in 0.11 in 1.43 in (2002)
Month to date precipitation 2.98  
Year to date precipitation 12.83  
Snow  
Snow 0.00 in 0.00 in 0.10 in (1898)
Month to date snowfall 0.0  
Since 1 July snowfall 20.1  
Snow Depth -    
Sea Level Pressure  
Sea Level Pressure 30.26 in    
Wind  
Wind Speed 3 mph (SSE)    
Max Wind Speed 15 mph    
Max Gust Speed 23 mph    
Visibility 10 miles    
Events      
T = Trace of Precipitation, MM = Missing Value Source: NWS Daily Summary

Daily Weather History Graph

Daily Weather History Graph

Search for Another Location

Airport or City:

Trip Planner

Search our weather history database for the weather conditions in past years. The results will help you decide how hot, cold, wet, or windy it might be!

Date:

Astronomy

Apr. 28, 2013 Rise Set
Actual Time 6:12 AM EDT 7:57 PM EDT
Civil Twilight 5:43 AM EDT 8:26 PM EDT
Nautical Twilight 5:09 AM EDT 9:00 PM EDT
Astronomical Twilight 4:32 AM EDT 9:37 PM EDT
Moon 11:24 PM EDT (4/28) 8:27 AM EDT (4/28)
Length of Visible Light 14h 42m
Length of Day
13h 45m
Waning Gibbous, 89% of the Moon is Illuminated
Apr 28
Waning Gibbous
May 2
Last Quarter
May 9
New
May 18
First Quarter
May 25
Full

Hourly Weather History & Observations

Time (EDT) Temp. Dew Point Humidity Pressure Visibility Wind Dir Wind Speed Gust Speed Precip Events Conditions
12:09 AM 42.8 °F 39.2 °F 87% 30.32 in 10.0 mi Calm Calm - N/A   Clear
12:30 AM 42.8 °F 37.4 °F 81% 30.32 in 10.0 mi Calm Calm - N/A   Clear
12:51 AM 42.8 °F 37.4 °F 81% 30.32 in 10.0 mi Calm Calm - N/A   Clear
1:09 AM 42.8 °F 37.4 °F 81% 30.32 in 10.0 mi Calm Calm - N/A   Clear
1:30 AM 41.0 °F 37.4 °F 87% 30.32 in 10.0 mi Calm Calm - N/A   Clear
1:51 AM 41.0 °F 37.4 °F 87% 30.32 in 10.0 mi Calm Calm - N/A   Clear
2:09 AM 41.0 °F 37.4 °F 87% 30.32 in 10.0 mi Calm Calm - N/A   Clear
2:30 AM 41.0 °F 37.4 °F 87% 30.31 in 10.0 mi Calm Calm - N/A   Clear
2:51 AM 39.2 °F 37.4 °F 93% 30.31 in 10.0 mi Calm Calm - N/A   Clear
3:09 AM 39.2 °F 37.4 °F 93% 30.31 in 10.0 mi Calm Calm - N/A   Clear
3:30 AM 39.2 °F 37.4 °F 93% 30.30 in 10.0 mi Calm Calm - N/A   Clear
3:51 AM 37.4 °F 35.6 °F 93% 30.29 in 10.0 mi Calm Calm - N/A   Clear
4:09 AM 37.4 °F 35.6 °F 93% 30.29 in 10.0 mi Calm Calm - N/A   Clear
4:30 AM 37.4 °F 35.6 °F 93% 30.29 in 7.0 mi Calm Calm - N/A   Clear
4:51 AM 37.4 °F 35.6 °F 93% 30.29 in 7.0 mi Calm Calm - N/A   Clear
5:09 AM 37.4 °F 35.6 °F 93% 30.29 in 7.0 mi Calm Calm - N/A   Clear
5:30 AM 37.4 °F 35.6 °F 93% 30.29 in 7.0 mi Calm Calm - N/A   Clear
5:51 AM 37.4 °F 35.6 °F 93% 30.28 in 7.0 mi Calm Calm - N/A   Clear
6:09 AM 35.6 °F 35.6 °F 100% 30.29 in 5.0 mi Calm Calm - N/A   Clear
6:30 AM 35.6 °F 35.6 °F 100% 30.29 in 5.0 mi Calm Calm - N/A   Clear
6:51 AM 37.4 °F 35.6 °F 93% 30.29 in 7.0 mi Calm Calm - N/A   Clear
7:09 AM 37.4 °F 37.4 °F 100% 30.31 in 7.0 mi Calm Calm - N/A   Clear
7:30 AM 41.0 °F 39.2 °F 93% 30.31 in 10.0 mi Calm Calm - N/A   Clear
7:51 AM 44.6 °F 41.0 °F 87% 30.30 in 10.0 mi Calm Calm - N/A   Clear
8:12 AM 50.0 °F 44.6 °F 82% 30.30 in 10.0 mi Calm Calm - N/A   Clear
8:30 AM 51.8 °F 44.6 °F 76% 30.31 in 10.0 mi Calm Calm - N/A   Clear
9:12 AM 57.2 °F 41.0 °F 55% 30.30 in 10.0 mi SSE 3.5 mph - N/A   Clear
9:30 AM 59.0 °F 41.0 °F 51% 30.29 in 10.0 mi SSE 4.6 mph - N/A   Clear
9:51 AM 60.8 °F 41.0 °F 48% 30.30 in 10.0 mi South 6.9 mph - N/A   Clear
10:12 AM 60.8 °F 41.0 °F 48% 30.30 in 10.0 mi SSE 6.9 mph - N/A   Clear
10:30 AM 62.6 °F 37.4 °F 39% 30.30 in 10.0 mi South 10.4 mph 17.3 mph N/A   Clear
10:51 AM 64.4 °F 35.6 °F 34% 30.29 in 10.0 mi South 5.8 mph - N/A   Clear
11:12 AM 68.0 °F 35.6 °F 30% 30.29 in 10.0 mi SSE 8.1 mph - N/A   Clear
11:30 AM 68.0 °F 33.8 °F 28% 30.29 in 10.0 mi SE 13.8 mph 23.0 mph N/A   Clear
11:51 AM 68.0 °F 33.8 °F 28% 30.28 in 10.0 mi SSE 9.2 mph - N/A   Clear
12:12 PM 66.2 °F 32.0 °F 28% 30.28 in 10.0 mi ESE 11.5 mph 19.6 mph N/A   Clear
12:30 PM 66.2 °F 32.0 °F 28% 30.28 in 10.0 mi SSE 15.0 mph 20.7 mph N/A   Clear
12:51 PM 66.2 °F 32.0 °F 28% 30.28 in 10.0 mi SE 15.0 mph 21.9 mph N/A   Scattered Clouds
1:12 PM 64.4 °F 32.0 °F 30% 30.27 in 10.0 mi SE 11.5 mph 19.6 mph N/A   Mostly Cloudy
1:30 PM 64.4 °F 32.0 °F 30% 30.27 in 10.0 mi SSE 10.4 mph 18.4 mph N/A   Scattered Clouds
1:51 PM 64.4 °F 32.0 °F 30% 30.27 in 10.0 mi SE 13.8 mph 19.6 mph N/A   Mostly Cloudy
2:12 PM 64.4 °F 32.0 °F 30% 30.26 in 10.0 mi SE 13.8 mph 17.3 mph N/A   Overcast
2:30 PM 64.4 °F 30.2 °F 28% 30.26 in 10.0 mi SE 13.8 mph 19.6 mph N/A   Overcast
2:51 PM 64.4 °F 30.2 °F 28% 30.26 in 10.0 mi SSE 13.8 mph 18.4 mph N/A   Overcast
3:30 PM 62.6 °F 30.2 °F 30% 30.25 in 10.0 mi South 5.8 mph 17.3 mph N/A   Overcast
3:51 PM 62.6 °F 32.0 °F 32% 30.24 in 10.0 mi South 6.9 mph - N/A   Overcast
4:12 PM 62.6 °F 32.0 °F 32% 30.23 in 10.0 mi South 6.9 mph - N/A   Overcast
4:33 PM 62.6 °F 32.0 °F 32% 30.22 in 10.0 mi South 4.6 mph - N/A   Overcast
4:51 PM 60.8 °F 33.8 °F 36% 30.22 in 10.0 mi SSE 4.6 mph - N/A   Mostly Cloudy
5:12 PM 60.8 °F 33.8 °F 36% 30.21 in 10.0 mi SSE 4.6 mph - N/A   Mostly Cloudy
5:33 PM 62.6 °F 32.0 °F 32% 30.21 in 10.0 mi SE 8.1 mph - N/A   Overcast
5:51 PM 60.8 °F 32.0 °F 34% 30.21 in 10.0 mi SE 5.8 mph - N/A   Overcast
6:12 PM 60.8 °F 32.0 °F 34% 30.20 in 10.0 mi SSE 4.6 mph - N/A   Overcast
6:33 PM 60.8 °F 28.4 °F 29% 30.19 in 10.0 mi SSE 8.1 mph - N/A   Overcast
6:51 PM 59.0 °F 30.2 °F 34% 30.19 in 10.0 mi SE 6.9 mph - N/A   Overcast
7:12 PM 59.0 °F 32.0 °F 36% 30.18 in 10.0 mi SSE 5.8 mph - N/A   Overcast
7:33 PM 59.0 °F 32.0 °F 36% 30.18 in 10.0 mi SSE 9.2 mph - N/A   Overcast
7:51 PM 59.0 °F 33.8 °F 39% 30.19 in 10.0 mi SSE 4.6 mph - N/A   Overcast
8:12 PM 59.0 °F 35.6 °F 42% 30.18 in 10.0 mi SSE 5.8 mph - N/A   Overcast
8:33 PM 59.0 °F 35.6 °F 42% 30.18 in 10.0 mi SSE 9.2 mph - N/A   Overcast
8:51 PM 59.0 °F 35.6 °F 42% 30.19 in 10.0 mi SSE 8.1 mph - N/A   Overcast
9:12 PM 57.2 °F 35.6 °F 44% 30.21 in 10.0 mi South 11.5 mph - N/A   Overcast
9:33 PM 57.2 °F 37.4 °F 48% 30.21 in 10.0 mi SSE 4.6 mph - N/A   Overcast
9:51 PM 57.2 °F 37.4 °F 48% 30.21 in 10.0 mi SE 4.6 mph - N/A   Overcast
10:12 PM 55.4 °F 37.4 °F 51% 30.21 in 10.0 mi SSE 4.6 mph - N/A   Overcast
10:33 PM 55.4 °F 37.4 °F 51% 30.21 in 10.0 mi SSE 4.6 mph - N/A   Overcast
10:51 PM 55.4 °F 35.6 °F 47% 30.21 in 10.0 mi Calm Calm - N/A   Overcast
11:12 PM 55.4 °F 37.4 °F 51% 30.21 in 10.0 mi Calm Calm - N/A   Overcast
11:33 PM 55.4 °F 37.4 °F 51% 30.21 in 10.0 mi Calm Calm - N/A   Overcast
11:51 PM 53.6 °F 37.4 °F 54% 30.20 in 10.0 mi SE 3.5 mph - N/A   Overcast